Retour au catalogue

USA 400

ActifMilitaireVLEO
NORAD 61021·PAYLOAD·🇺🇸 United States

Lancé Sep 6, 2024 depuis Vandenberg Space Force Base

Loading…

Prochains Passages (prochaines 24 heures)

TLE

PériméSource: Mike McCants

Époque: Aug 25, 2026, 23:37 UTC

1 61021U 24160A   26237.98441774 0.00000000  00000-0  00000-0 0    00
2 61021  70.0150 196.6992 0003000 184.6486 175.3513 14.96713321    09

Suivez USA 400 en temps réel avec AllMySat

Download on the App Store